STARLINK-5677, 55463

Orbit data source: Space-Track

STARLINK-5677, 55463 is a payload satellite owned by SpaceX/Seattle (US) in LEO that was launched on Thu, 02 Feb 2023 UTC via an FALCON 9 launch vehicle from the Air Force Eastern Test Range (AFETR). Payload-class satellites include a variety of spacecraft equipped with specific instruments for various scientific and technological missions. These include communications satellites like Starlink; space stations such as the ISS; scientific satellites like the Hubble; Earth observation satellites from companies like Planet Labs, Umbra, and HawkEye 360; GPS; miniature CubeSats for education and research; and military/defense satellites.

Loading next visibility...
Identifier
55463, 2023-015Q
Orbit
LEO
Country
Flag of USUS
Related business
Manufacturer
SpaceX/Seattle
Mission
Operational Commercial Communications
Bus & Motor
STARLINK, Unknown motor
Mass
305 kg wet, ~290 kg dry
Launch date (UTC)
2023-02-02 (3 years ago)
Launch vehicle
FALCON 9
Launch site
Air Force Eastern Test Range (AFETR)
Object type
Payload
Rocket body
Debris
Shape & HBR
Box + 1 Pan, 10.1 m
Radar Cross Section
13.562 m², Large (>1 m²)

Expand to show TLE details & history
Last TLE update: 2 days ago

TLE from 2 days ago
0 STARLINK-5677
1 55463U 23015Q   26171.28180919  .00018954  00000-0  92831-3 0  9992
2 55463  42.9989 117.7470 0003524 163.3176 196.7789 15.17838633186315
Epoch: 2026-06-20T06:45Z
TLE epoch observation values (Epoch: 2026-06-20T06:45:48.314Z)
Latitude
0.00004°
Longitude
107.79706°
Altitude
514.475 km
Speed
7.607 km/s
True Right ascension
07h 50m 59s
True Declination
0° 00' 00"
Sunlit
Object was in daylight at epoch
Visualization orbit readout
Latitude
Unknown
Longitude
Unknown
Altitude
Unknown
Speed
Unknown
Apparent Right ascension
Unknown
Apparent Declination
Unknown
Sunlit
N/A
Visualization observer readout
Local Sidereal Time
23:19:23
Azimuth
Unknown
Elevation
Unknown
Doppler factor
Unknown
Orbital elements
Apogee altitude
516.74 km
Perigee altitude
511.882 km
Semi-major axis
6,892.448 km
Eccentricity
0.00035
Inclination
42.9989°
RAAN
117.747°
Arg. of periapsis
163.3176°
True anomaly
196.76725°
Mean anomaly
196.7789°
Eccentric anomaly
196.77307°
Mean motion
3.793 °/min
Orbital period
94.91 mins
BSTAR
0.00092831
Loading maneuver chart data...
Computing Atmospheric mass density...
Loading historical data...
Loading historical data...
Loading historical data...
Loading historical data...
Loading historical data...
Loading historical data...
Loading historical data...

Documentation

Showing up to 5 results
|